Regional Weather Roundup
Issued by NWS Cleveland, OH

Home | Current Version | Previous Version | Graphics & Text | Print | Product List | Glossary On
Versions: 1 2 3 4 5 6 7 8 9 10 11 12 13 14 15 16 17 18 19 20 21 22 23 24 25 26 27 28 29 30 31 32 33 34 35 36 37 38 39 40 41 42 43 44 45 46 47 48 49 50
162
ASUS41 KCLE 240810
RWRCLE
OHIO REGIONAL WEATHER ROUNDUP
NATIONAL WEATHER SERVICE WILMINGTON, OH
400 AM EDT SUN JUL 24 2016

NOTE: "FAIR" INDICATES FEW OR NO CLOUDS BELOW 12,000 FEET WITH NO
SIGNIFICANT WEATHER AND/OR OBSTRUCTIONS TO VISIBILITY.

OHZ001>008-015>018-024>027-034-035-043-044-240900-
   NORTHWEST OHIO

CITY           SKY/WX    TMP DP  RH WIND       PRES   REMARKS
DEFIANCE       FAIR      77  71  82 SW3       29.99R
FINDLAY        FAIR      75  70  84 CALM      29.97S
TOLEDO EXPRESS FAIR      73  71  93 CALM      29.97S
TOLEDO EXEC    FAIR      77  68  73 E3        29.98S
LIMA           FAIR      75  72  90 CALM      29.99S
$$

OHZ009>014-019>023-028>033-038-089-240900-
   NORTHEAST OHIO

CITY           SKY/WX    TMP DP  RH WIND       PRES   REMARKS
CLE-HOPKINS    FAIR      75  60  59 CALM      30.01F
CLE-LAKEFRONT  FAIR      77  60  55 S7        29.98S
CUY CO. ARPT   NOT AVBL
LORAIN-ELYRIA  FAIR      68  62  81 CALM      30.00S
ASHTABULA      FAIR      63  63 100 CALM      30.02S
AKRON-CANTON   FAIR      74  59  59 SE5       30.02S
WOOSTER        FAIR      67  64  90 CALM      30.03R
MANSFIELD      FAIR      73  66  78 S3        30.03R
YOUNGSTOWN     FAIR      63  60  90 CALM      30.02F
$$

OHZ042-051>053-060>062-070>072-077>081-240900-
  SOUTHWEST OHIO

CITY           SKY/WX    TMP DP  RH WIND       PRES   REMARKS
CINC-COVINGTON MOCLDY    73  72  96 S3        30.00F
CINC-LUNKEN    FAIR      73  73 100 CALM      29.99F
HAMILTON       FAIR      73  70  90 CALM      29.99F
DAYTON         MOCLDY    76  72  87 CALM      30.01S
WRIGHT-PAT AFB FAIR      75  74  95 VRB1      30.00S
DAYTON GENERAL FAIR      76  70  82 CALM      29.99F
WILMINGTON     FAIR      73  72  96 S3        30.00F FOG
$$

OHZ036-037-039>041-045>050-054>059-063>069-073>076-082>088-240900-
  CENTRAL AND SOUTHEAST OHIO

CITY           SKY/WX    TMP DP  RH WIND       PRES   REMARKS
COLUMBUS       CLOUDY    75  72  90 CALM      29.99S
OSU AIRPORT    FAIR      75  72  90 CALM      29.99F
BOLTON FIELD   FAIR      73  73 100 CALM      30.00F
RICKENBACK AFB FAIR      73  72  97 CALM      29.99S
NEWARK         FAIR      71  70  96 CALM      30.00S FOG
MARION         FAIR      75  71  87 SE5       30.00F
LANCASTER      FAIR      71  70  96 CALM      30.01S
ZANESVILLE     FAIR      75  71  87 CALM      30.00S
NEW PHILLY     MOCLDY    72  66  81 CALM      30.02R
$$




USA.gov is the U.S. government's official web portal to all federal, state and local government web resources and services.